Location: Oshawa
(43.9000°N, 78.8670°W)
Time: 22:13:22
(UTC-04:00)

Amateur Radio Satellites - All Passes

Search period start: 30 August 2014 21:43
Search period end: 31 August 2014 21:43
Location: Oshawa, 43.9000°N, 78.8670°W

Satellite Date Start Highest point End Downlink Frequencies (MHz)
Time Altitude Azimuth
FUNcube-1 30 Aug 22:02:49 22:06:25 28° 68° (ENE) 22:10:05 145.950 - 145.970 MHz USB
MaSat-1 30 Aug 22:08:19 22:12:02 23° 48° (NE) 22:15:25 437.345 MHz
Saudisat 1A 30 Aug 22:21:34 22:24:41 19° 112° (ESE) 22:27:48 436.775 MHz
AO-40 30 Aug 22:27:36 01:43:30 32° 193° (SSW) 06:41:13 Beacon 2401.320
KITSAT 1 30 Aug 22:57:04 23:03:27 27° 105° (ESE) 23:09:50 435.175 FM
UKube-1 30 Aug 23:08:46 23:11:11 15° 269° (W) 23:13:37 145.840 MHz, 145.915 MHz
HO-68 30 Aug 23:13:10 23:17:32 17° 271° (W) 23:21:57 435.675 MHz FM
Oscar 11 30 Aug 23:13:55 23:17:09 20° 267° (W) 23:20:25 145.825 FM, Beacon 2401.500 USB
FUNcube-1 30 Aug 23:39:16 23:42:47 26° 265° (W) 23:46:23 145.950 - 145.970 MHz USB
MaSat-1 30 Aug 23:44:58 23:49:22 45° 250° (WSW) 23:53:10 437.345 MHz
Saudisat 1A 30 Aug 23:59:36 00:03:54 52° 309° (NW) 00:08:14 436.775 MHz
PCSat 31 Aug 00:12:23 00:13:59 11° 29° (NNE) 00:15:34 145.825 MHz
KITSAT 1 31 Aug 00:50:01 00:58:06 74° 305° (NW) 01:06:14 435.175 FM
Sapphire 31 Aug 01:24:29 01:29:04 27° 45° (NE) 01:33:38 437.095 MHz 1200 baud AX-25 AFSK
Saudisat 1A 31 Aug 01:43:09 01:44:30 11° 330° (NNW) 01:45:52 436.775 MHz
PCSat 31 Aug 01:53:40 01:58:53 44° 52° (NE) 02:04:03 145.825 MHz
Oscar 19 31 Aug 02:02:32 02:06:49 25° 94° (E) 02:11:03 437.125 CW, 437.150 USB
AO-Echo 31 Aug 02:29:17 02:32:44 20° 93° (E) 02:36:10 ?
ITAMSAT 1 31 Aug 02:35:23 02:39:24 22° 93° (E) 02:43:23 435.822 SSB
Oscar 16 31 Aug 02:36:54 02:42:01 53° 100° (E) 02:47:04 437.025 USB, Beacon 2401.1428
Uribyol 2 31 Aug 02:44:58 02:49:28 29° 95° (E) 02:53:56 436.500 FM
KITSAT 1 31 Aug 02:48:37 02:54:58 24° 329° (NNW) 03:01:20 435.175 FM
JAS-1B 31 Aug 02:53:17 02:59:13 32° 92° (E) 03:04:26 435.800 - 435.900 CW/SSB
AO-27 31 Aug 03:03:52 03:08:45 41° 98° (E) 03:13:38 436.795 MHz FM
Sapphire 31 Aug 03:07:31 03:12:49 56° 245° (WSW) 03:18:06 437.095 MHz 1200 baud AX-25 AFSK
Gurwin Techsat 1B 31 Aug 03:32:57 03:37:48 35° 97° (E) 03:42:38 435.225 FM
PCSat 31 Aug 03:37:27 03:42:06 30° 250° (WSW) 03:46:44 145.825 MHz
Oscar 19 31 Aug 03:41:25 03:46:19 43° 291° (WNW) 03:51:11 437.125 CW, 437.150 USB
OPAL 31 Aug 03:49:09 03:53:29 29° 63° (ENE) 03:57:52 ?
AO-7 31 Aug 03:49:50 03:52:38 12° 85° (E) 03:55:26 29.400 - 29.500 MHz
AO-Echo 31 Aug 04:07:16 04:11:45 45° 290° (WNW) 04:16:13 ?
SO-50 31 Aug 04:10:41 04:15:02 55° 120° (ESE) 04:19:31 436.795 FM
ITAMSAT 1 31 Aug 04:14:09 04:19:08 49° 290° (WNW) 04:24:06 435.822 SSB
Oscar 16 31 Aug 04:17:05 04:20:59 22° 298° (WNW) 04:24:52 437.025 USB, Beacon 2401.1428
TMSAT-1 31 Aug 04:24:05 04:29:25 75° 103° (ESE) 04:34:42 436.925 FM
Uribyol 2 31 Aug 04:24:14 04:29:00 38° 292° (WNW) 04:33:45 436.500 FM
JAS-1B 31 Aug 04:43:39 04:50:06 43° 296° (WNW) 04:55:42 435.800 - 435.900 CW/SSB
AO-27 31 Aug 04:43:45 04:48:05 28° 296° (WNW) 04:52:24 436.795 MHz FM
KITSAT 1 31 Aug 04:49:48 04:53:55 14° 359° (N) 04:58:02 435.175 FM
Uosat F 31 Aug 04:57:55 05:02:18 30° 96° (E) 05:06:39 435.120 FM
Oscar 10/S400 31 Aug 04:59:56 06:05:15 23° 246° (WSW) 08:44:30 145.825 - 145.975 CW/USB, Beacon 145.810 USB
Gurwin Techsat 1B 31 Aug 05:13:02 05:17:42 32° 294° (WNW) 05:22:22 435.225 FM
OPAL 31 Aug 05:27:31 05:32:13 38° 260° (W) 05:37:00 ?
STRAND 1 31 Aug 05:35:42 05:38:03 13° 57° (ENE) 05:40:25 ?
AO-7 31 Aug 05:38:43 05:46:59 66° 105° (ESE) 05:55:11 29.400 - 29.500 MHz
SO-50 31 Aug 05:52:18 05:55:56 23° 320° (NW) 05:59:38 436.795 FM
Hamsat 31 Aug 05:55:41 05:56:36 11° 88° (E) 05:57:31 145.90 MHz
TMSAT-1 31 Aug 06:05:28 06:08:43 17° 301° (WNW) 06:11:58 436.925 FM
UOSAT-12 31 Aug 06:08:30 06:13:04 67° 121° (ESE) 06:17:45 437.025 FM, 437.400 FM
RS-15 31 Aug 06:30:03 06:37:00 19° 99° (E) 06:43:50 29.354 - 29.394 USB, Beacon 29.352 USB
JAS-2 31 Aug 06:32:57 06:37:27 28° 96° (E) 06:42:12 435.800 - 435.900 CW/SSB, 435.910 FM
Uosat F 31 Aug 06:36:36 06:41:06 35° 293° (WNW) 06:45:35 435.120 FM
Saudisat 1A 31 Aug 06:45:50 06:49:37 27° 43° (NE) 06:53:23 436.775 MHz
KITSAT 1 31 Aug 06:46:43 06:52:56 23° 29° (NNE) 06:59:07 435.175 FM
STRAND 1 31 Aug 07:11:24 07:16:30 90° 255° (WSW) 07:21:38 ?
Hamsat 31 Aug 07:28:44 07:33:06 75° 284° (WNW) 07:37:24 145.90 MHz
AO-7 31 Aug 07:32:13 07:39:15 32° 305° (NW) 07:46:15 29.400 - 29.500 MHz
UOSAT-12 31 Aug 07:50:06 07:53:41 21° 321° (NW) 07:57:19 437.025 FM, 437.400 FM
SO-67 31 Aug 08:05:35 08:08:52 39° 98° (E) 08:12:08 435.3500 MHz FM
JAS-2 31 Aug 08:17:52 08:22:41 38° 292° (WNW) 08:27:47 435.800 - 435.900 CW/SSB, 435.910 FM
Saudisat 1A 31 Aug 08:25:10 08:29:21 42° 242° (WSW) 08:33:29 436.775 MHz
RS-15 31 Aug 08:36:26 08:47:29 80° 120° (ESE) 08:58:24 29.354 - 29.394 USB, Beacon 29.352 USB
KITSAT 1 31 Aug 08:41:49 08:49:55 70° 54° (NE) 08:57:56 435.175 FM
HO-68 31 Aug 08:50:07 08:53:57 15° 88° (E) 08:57:46 435.675 MHz FM
STRAND 1 31 Aug 08:55:04 08:56:24 11° 272° (W) 08:57:44 ?
SO-67 31 Aug 09:39:51 09:41:35 13° 295° (WNW) 09:43:18 435.3500 MHz FM
ISS 31 Aug 09:51:08 09:51:54 11° 130° (SE) 09:52:40 145.800 FM
HO-68 31 Aug 10:35:28 10:42:41 83° 106° (ESE) 10:49:51 435.675 MHz FM
KITSAT 1 31 Aug 10:38:05 10:44:39 29° 254° (WSW) 10:51:12 435.175 FM
RS-15 31 Aug 10:50:58 11:00:58 39° 327° (NNW) 11:11:02 29.354 - 29.394 USB, Beacon 29.352 USB
UKube-1 31 Aug 10:53:15 10:57:37 85° 105° (ESE) 11:01:58 145.840 MHz, 145.915 MHz
Oscar 11 31 Aug 10:58:46 11:03:08 66° 101° (ESE) 11:07:28 145.825 FM, Beacon 2401.500 USB
SO-50 31 Aug 11:01:22 11:04:14 16° 34° (NE) 11:07:07 436.795 FM
ISS 31 Aug 11:24:47 11:28:07 78° 146° (SE) 11:31:27 145.800 FM
FUNcube-1 31 Aug 11:25:51 11:30:18 52° 100° (E) 11:34:47 145.950 - 145.970 MHz USB
JAS-1B 31 Aug 11:55:19 11:56:45 11° 44° (NE) 11:58:09 435.800 - 435.900 CW/SSB
Oscar 16 31 Aug 12:19:28 12:21:48 13° 57° (ENE) 12:24:09 437.025 USB, Beacon 2401.1428
HO-68 31 Aug 12:24:23 12:29:35 22° 306° (NW) 12:34:47 435.675 MHz FM
UKube-1 31 Aug 12:31:59 12:33:09 11° 301° (WNW) 12:34:19 145.840 MHz, 145.915 MHz
Oscar 11 31 Aug 12:36:34 12:38:47 14° 299° (WNW) 12:41:00 145.825 FM, Beacon 2401.500 USB
SO-50 31 Aug 12:40:49 12:45:37 74° 54° (NE) 12:50:27 436.795 FM
AO-27 31 Aug 12:48:46 12:49:54 11° 55° (NE) 12:51:02 436.795 MHz FM
UOSAT-12 31 Aug 12:57:42 13:00:46 17° 35° (NE) 13:03:49 437.025 FM, 437.400 FM
ISS 31 Aug 13:02:13 13:05:07 27° 345° (NNW) 13:08:02 145.800 FM
FUNcube-1 31 Aug 13:03:15 13:06:19 18° 296° (WNW) 13:09:23 145.950 - 145.970 MHz USB
RS-15 31 Aug 13:09:00 13:17:31 25° 1° (N) 13:26:08 29.354 - 29.394 USB, Beacon 29.352 USB
Oscar 19 31 Aug 13:20:36 13:25:26 42° 69° (ENE) 13:30:18 437.125 CW, 437.150 USB
MaSat-1 31 Aug 13:33:01 13:37:50 58° 112° (ESE) 13:42:56 437.345 MHz
JAS-1B 31 Aug 13:36:26 13:45:16 43° 64° (ENE) 13:53:09 435.800 - 435.900 CW/SSB
AO-Echo 31 Aug 13:43:16 13:47:41 32° 68° (ENE) 13:52:00 ?
ITAMSAT 1 31 Aug 13:54:35 13:59:20 39° 68° (ENE) 14:04:07 435.822 SSB
Oscar 16 31 Aug 13:55:12 14:00:22 88° 75° (ENE) 14:05:36 437.025 USB, Beacon 2401.1428
Uribyol 2 31 Aug 14:04:07 14:09:05 50° 70° (ENE) 14:14:04 436.500 FM
TMSAT-1 31 Aug 14:08:35 14:12:14 19° 61° (ENE) 14:15:53 436.925 FM
SO-50 31 Aug 14:22:54 14:25:38 15° 251° (WSW) 14:28:22 436.795 FM
AO-27 31 Aug 14:23:21 14:28:29 72° 73° (ENE) 14:33:40 436.795 MHz FM
UOSAT-12 31 Aug 14:36:54 14:41:40 84° 55° (NE) 14:46:21 437.025 FM, 437.400 FM
ISS 31 Aug 14:39:56 14:42:35 22° 6° (N) 14:45:15 145.800 FM
AO-7 31 Aug 14:49:07 14:55:26 25° 51° (NE) 15:01:43 29.400 - 29.500 MHz
Gurwin Techsat 1B 31 Aug 14:55:19 15:00:33 63° 72° (ENE) 15:05:48 435.225 FM
Oscar 19 31 Aug 15:00:39 15:04:55 26° 266° (W) 15:09:13 437.125 CW, 437.150 USB
MaSat-1 31 Aug 15:11:11 15:15:16 24° 311° (NW) 15:19:26 437.345 MHz
AO-Echo 31 Aug 15:22:00 15:26:26 31° 264° (W) 15:30:47 ?
RS-15 31 Aug 15:23:45 15:33:57 40° 35° (NE) 15:44:25 29.354 - 29.394 USB, Beacon 29.352 USB
JAS-1B 31 Aug 15:26:00 15:35:31 55° 260° (W) 15:44:07 435.800 - 435.900 CW/SSB
Oscar 10/S400 31 Aug 15:33:24 15:40:24 12° 144° (SE) 15:46:59 145.825 - 145.975 CW/USB, Beacon 145.810 USB
ITAMSAT 1 31 Aug 15:34:32 15:38:55 28° 265° (W) 15:43:20 435.822 SSB
Oscar 16 31 Aug 15:38:37 15:40:25 12° 272° (W) 15:42:14 437.025 USB, Beacon 2401.1428
Uribyol 2 31 Aug 15:44:57 15:48:50 21° 267° (W) 15:52:45 436.500 FM
TMSAT-1 31 Aug 15:46:25 15:51:39 64° 259° (WSW) 15:56:56 436.925 FM
AO-27 31 Aug 16:05:40 16:08:32 15° 270° (W) 16:11:26 436.795 MHz FM
Sapphire 31 Aug 16:09:57 16:12:58 15° 104° (ESE) 16:15:59 437.095 MHz 1200 baud AX-25 AFSK
Uosat F 31 Aug 16:12:25 16:17:12 48° 70° (ENE) 16:22:01 435.120 FM
ISS 31 Aug 16:16:38 16:19:53 48° 25° (NNE) 16:23:07 145.800 FM
UOSAT-12 31 Aug 16:19:09 16:21:07 13° 253° (WSW) 16:23:05 437.025 FM, 437.400 FM
PCSat 31 Aug 16:37:26 16:42:01 29° 109° (ESE) 16:46:37 145.825 MHz
Gurwin Techsat 1B 31 Aug 16:37:28 16:40:58 18° 269° (W) 16:44:29 435.225 FM
AO-7 31 Aug 16:38:54 16:47:16 87° 251° (WSW) 16:55:39 29.400 - 29.500 MHz
JAS-2 31 Aug 16:49:00 16:52:18 16° 60° (ENE) 16:55:27 435.800 - 435.900 CW/SSB, 435.910 FM
Hamsat 31 Aug 16:51:22 16:52:06 10° 59° (ENE) 16:52:50 145.90 MHz
JAS-1B 31 Aug 17:25:47 17:27:33 11° 278° (W) 17:29:18 435.800 - 435.900 CW/SSB
OPAL 31 Aug 17:35:30 17:40:35 49° 102° (ESE) 17:45:36 ?
RS-15 31 Aug 17:36:17 17:47:20 76° 241° (WSW) 17:58:49 29.354 - 29.394 USB, Beacon 29.352 USB
Sapphire 31 Aug 17:50:16 17:55:41 80° 302° (WNW) 18:01:08 437.095 MHz 1200 baud AX-25 AFSK
Uosat F 31 Aug 17:52:28 17:56:14 21° 267° (W) 18:00:02 435.120 FM
ISS 31 Aug 17:53:37 17:56:28 26° 223° (SW) 17:59:19 145.800 FM
PCSat 31 Aug 18:20:02 18:25:13 45° 308° (NW) 18:30:26 145.825 MHz
Hamsat 31 Aug 18:23:01 18:27:20 89° 258° (WSW) 18:31:44 145.90 MHz
JAS-2 31 Aug 18:30:44 18:36:52 83° 256° (WSW) 18:42:22 435.800 - 435.900 CW/SSB, 435.910 FM
AO-7 31 Aug 18:35:46 18:41:09 18° 271° (W) 18:46:33 29.400 - 29.500 MHz
SO-67 31 Aug 18:40:44 18:43:08 18° 67° (ENE) 18:45:31 435.3500 MHz FM
OPAL 31 Aug 19:15:00 19:19:09 25° 299° (WNW) 19:23:18 ?
STRAND 1 31 Aug 19:21:05 19:25:25 27° 95° (E) 19:29:44 ?
HO-68 31 Aug 19:21:37 19:25:35 16° 50° (NE) 19:29:32 435.675 MHz FM
Sapphire 31 Aug 19:36:31 19:40:00 17° 323° (NW) 19:43:30 437.095 MHz 1200 baud AX-25 AFSK
RS-15 31 Aug 19:51:02 19:57:48 19° 262° (W) 20:04:45 29.354 - 29.394 USB, Beacon 29.352 USB
PCSat 31 Aug 20:08:23 20:10:06 11° 330° (NNW) 20:11:48 145.825 MHz
SO-67 31 Aug 20:12:56 20:15:59 28° 264° (W) 20:19:03 435.3500 MHz FM
UKube-1 31 Aug 20:18:21 20:18:46 10° 58° (ENE) 20:19:10 145.840 MHz, 145.915 MHz
JAS-2 31 Aug 20:21:03 20:22:37 11° 271° (W) 20:24:09 435.800 - 435.900 CW/SSB, 435.910 FM
STRAND 1 31 Aug 20:59:59 21:04:42 39° 292° (WNW) 21:09:24 ?
HO-68 31 Aug 21:04:59 21:12:04 71° 70° (ENE) 21:19:11 435.675 MHz FM
